User: anonymous   Login
Location: Unspecified
(0.0000°N, 0.0000°E)
Time: 16:58:14
(UTC+00:00)
Language:

Transit VBN-1 - Orbit

View from above orbital plane
View from above orbital plane
View from above satellite
View from above satellite

Ground track
Ground track

The orbit data is extracted from the following two-line orbital elements,

1   670U 63038B   18174.88308189 +.00000031 +00000-0 +37067-4 0  9990
2   670 090.0651 327.8207 0043393 097.1402 056.7700 13.44294860682619
Epoch (UTC): 23 June 2018 21:11:38
Eccentricity: 0.0043393
inclination: 90.0651°
perigee height: 1061 km
apogee height: 1126 km
right ascension of ascending node: 327.8207°
argument of perigee: 97.1402°
revolutions per day: 13.44294860
mean anomaly at epoch: 56.7700°
orbit number at epoch: 68261

The dashed part of the orbit path shows where the satellite is in the earth's shadow,  

DLR